Notices

What's New in latest Release from April 7th, 2021:

- Updated Glossary, including Speed of Maximum Gust, and Total Hourly Precipitation

- Updated national and regional climate services offices contacts and prices information

- Addition of station inventory lists for 1981-2010, 1971-2000, and 1961-1990 Normals.

If you haven't already, please take our survey and provide feedback about our website: https://eccc.sondage-survey.ca/f/LanguageSelection.aspx?s=442ca660-fcf1-47c0-95a9-59707d6fd709

Hourly Data Report for January 03, 2021

OTTAWA INTL A
ONTARIO
Current Station Operator: NAVCAN

45°19'00.000" N
75°40'00.000" W
114.90 m
6106001
71628
YOW

Download Data

Hourly Data (January 2021)
Hourly Data Report for January 3, 2021
TIME
LST
Temp Definition
°C
Dew Point Definition
°C
Rel Hum Definition
%
Precip. Amount Definition
mm

Wind Dir Definition
10's deg

Wind Spd Definition
km/h
Visibility Definition
km
Stn Press Definition
kPa
Hmdx Definition


Wind Chill Definition


Weather Definition


00:00 -4.6 -6.2 88   11 7 24.1 100.69   -8 LegendNANA
01:00 -6.2 -7.2 92   12 7 24.1 100.64   -10 Mainly Clear
02:00 -5.2 -7.1 86   14 9 24.1 100.69   -9 LegendNANA
03:00 -4.5 -6.7 85   14 4 24.1 100.70   -6 LegendNANA
04:00 -4.4 -6.3 86   14 7 24.1 100.68   -8 Mostly Cloudy
05:00 -5.2 -7.0 87   10 7 24.1 100.62   -8 LegendNANA
06:00 -5.2 -7.2 85   12 4 24.1 100.62   -7 LegendNANA
07:00 -5.0 -7.0 86   7 5 24.1 100.54   -7 Cloudy
08:00 -5.3 -7.5 85   7 10 24.1 100.53   -10 LegendNANA
09:00 -5.0 -7.5 83   7 14 24.1 100.50   -10 LegendNANA
10:00 -4.3 -7.0 81   8 9 24.1 100.52   -8 Mostly Cloudy
11:00 -3.7 -6.4 82   9 5 24.1 100.44   -6 LegendNANA
12:00 -3.2 -6.1 81   5 15 24.1 100.23   -8 LegendNANA
13:00 -2.6 -5.9 78   6 14 24.1 100.14   -7 Mostly Cloudy
14:00 -2.4 -5.6 78   7 10 24.1 100.15   -6 LegendNANA
15:00 -2.5 -5.7 79   9 10 24.1 100.16   -6 LegendNANA
16:00 -2.6 -5.4 81   5 8 24.1 100.18   -6 Cloudy
17:00 -2.6 -5.2 83   6 7 24.1 100.16   -5 LegendNANA
18:00 -2.6 -4.8 85   4 11 24.1 100.17   -7 LegendNANA
19:00 -2.6 -4.5 87   5 10 12.9 100.19   -6 Snow
20:00 -2.8 -4.7 87   6 13 12.9 100.19   -7 Snow
21:00 -3.0 -5.0 86   7 9 12.9 100.17   -7 LegendNANA
22:00 -3.2 -5.0 87   3 10 12.9 100.20   -7 Cloudy
23:00 -3.3 -5.2 87   4 12 12.9 100.18   -8 LegendNANA

Notes on Data Quality.

Legend

  • E = Estimated
  • M = Missing
  • NA = Not Available*
  • [empty] = Indicates an unobserved value
Date modified: